WB0YAF-8 Weather Reports


Display with metric or nautical units.
time (UTC)temp
F
wind
direction
speed
MPH
gust
MPH
rain 1hr
in
rain 24hr
in
rain mn
in
humidity
%
barometer
mb
20260906214042 86 90 2.0 9.0 0.00 0.00 0.00 30 1018.4
20260906213543 86 90 6.0 9.0 0.00 0.00 0.00 30 1018.4
20260906213043 86 45 0.0 0.0 0.00 0.00 0.00 30 1018.4
20260906212543 86 45 0.0 5.0 0.00 0.00 0.00 30 1018.4
20260906212043 86 113 0.0 6.0 0.00 0.00 0.00 30 1018.4
20260906211542 86 90 1.0 6.0 0.00 0.00 0.00 30 1018.4
20260906211043 86 135 3.0 5.0 0.00 0.00 0.00 30 1018.4
20260906210543 85 135 2.0 9.0 0.00 0.00 0.00 30 1018.4
20260906210042 86 158 5.0 6.0 0.00 0.00 0.00 30 1019.4
20260906205543 86 113 5.0 8.0 0.00 0.00 0.00 30 1019.4
20260906205043 85 90 1.0 6.0 0.00 0.00 0.00 30 1019.4
20260906204543 85 90 0.0 3.0 0.00 0.00 0.00 30 1019.4
20260906204042 86 135 6.0 8.0 0.00 0.00 0.00 30 1019.4
20260906203542 86 180 0.0 3.0 0.00 0.00 0.00 30 1019.4
20260906203042 86 45 0.0 3.0 0.00 0.00 0.00 30 1019.4
20260906202543 86 180 0.0 0.0 0.00 0.00 0.00 30 1019.4
20260906202042 86 293 1.0 0.0 0.00 0.00 0.00 30 1019.4
20260906201542 86 90 0.0 6.0 0.00 0.00 0.00 30 1019.4
20260906201043 86 338 0.0 3.0 0.00 0.00 0.00 30 1019.4
20260906200543 85 113 5.0 5.0 0.00 0.00 0.00 30 1019.4
20260906200043 85 113 0.0 9.0 0.00 0.00 0.00 30 1019.4
20260906195542 85 90 2.0 0.0 0.00 0.00 0.00 30 1019.4
20260906195042 85 113 5.0 9.0 0.00 0.00 0.00 30 1019.4
20260906194544 85 135 0.0 9.0 0.00 0.00 0.00 30 1019.4
20260906194042 85 90 2.0 7.0 0.00 0.00 0.00 30 1019.4
20260906193542 85 113 3.0 3.0 0.00 0.00 0.00 30 1019.4
20260906193042 84 113 1.0 8.0 0.00 0.00 0.00 30 1019.4
20260906192543 84 68 0.0 0.0 0.00 0.00 0.00 30 1019.4
20260906192043 84 113 5.0 8.0 0.00 0.00 0.00 30 1019.4
20260906191543 85 113 0.0 6.0 0.00 0.00 0.00 30 1019.4
20260906191044 84 113 5.0 9.0 0.00 0.00 0.00 30 1019.4
20260906190544 84 158 0.0 3.0 0.00 0.00 0.00 30 1019.4
20260906190043 84 158 1.0 3.0 0.00 0.00 0.00 30 1020.4
20260906185542 84 135 5.0 8.0 0.00 0.00 0.00 30 1020.4
20260906185042 84 68 1.0 6.0 0.00 0.00 0.00 30 1020.4
20260906184542 84 113 3.0 7.0 0.00 0.00 0.00 30 1020.4
20260906184042 84 0 0.0 0.0 0.00 0.00 0.00 30 1020.4
20260906183542 83 113 1.0 3.0 0.00 0.00 0.00 30 1020.4
20260906183042 83 135 0.0 5.0 0.00 0.00 0.00 30 1020.4
20260906182544 82 113 0.0 0.0 0.00 0.00 0.00 30 1020.4
20260906182043 83 90 3.0 6.0 0.00 0.00 0.00 30 1020.4
20260906181543 84 113 1.0 3.0 0.00 0.00 0.00 30 1020.4
20260906181044 84 23 0.0 3.0 0.00 0.00 0.00 30 1020.4
20260906180543 84 315 0.0 0.0 0.00 0.00 0.00 30 1020.4
20260906180043 83 180 0.0 3.0 0.00 0.00 0.00 30 1020.4
20260906175542 83 113 0.0 0.0 0.00 0.00 0.00 30 1020.4
20260906175042 83 135 0.0 0.0 0.00 0.00 0.00 30 1020.4
20260906174542 82 68 0.0 0.0 0.00 0.00 0.00 30 1020.4
20260906174043 82 135 1.0 6.0 0.00 0.00 0.00 30 1020.4
20260906173542 81 113 0.0 0.0 0.00 0.00 0.00 30 1020.4
20260906173042 81 90 0.0 0.0 0.00 0.00 0.00 30 1021.4
20260906172543 81 113 0.0 3.0 0.00 0.00 0.00 30 1021.4
20260906172043 80 293 2.0 0.0 0.00 0.00 0.00 30 1021.4
20260906171543 80 135 0.0 3.0 0.00 0.00 0.00 30 1021.4
20260906171042 81 135 2.0 3.0 0.00 0.00 0.00 30 1021.4
20260906170542 82 135 2.0 6.0 0.00 0.00 0.00 30 1021.4
20260906170042 82 135 2.0 0.0 0.00 0.00 0.00 30 1021.4
20260906165542 82 68 0.0 0.0 0.00 0.00 0.00 30 1021.4
20260906165042 81 135 0.0 3.0 0.00 0.00 0.00 30 1021.4
20260906164542 82 135 2.0 6.0 0.00 0.00 0.00 30 1021.4
20260906164043 82 90 0.0 0.0 0.00 0.00 0.00 30 1021.4
20260906163542 81 113 0.0 0.0 0.00 0.00 0.00 30 1021.4
20260906163042 82 113 0.0 5.0 0.00 0.00 0.00 30 1021.4
20260906162542 83 113 0.0 3.0 0.00 0.00 0.00 30 1021.4
20260906162042 83 113 0.0 0.0 0.00 0.00 0.00 30 1021.4
20260906161543 83 135 3.0 6.0 0.00 0.00 0.00 30 1021.4
20260906161042 83 113 0.0 0.0 0.00 0.00 0.00 30 1021.4
20260906160543 83 90 0.0 0.0 0.00 0.00 0.00 30 1021.4
20260906160042 83 113 0.0 0.0 0.00 0.00 0.00 30 1021.4
20260906155542 84 135 0.0 0.0 0.00 0.00 0.00 30 1021.4
20260906155042 84 135 0.0 0.0 0.00 0.00 0.00 30 1021.4
20260906154543 85 270 0.0 0.0 0.00 0.00 0.00 30 1021.4
20260906154042 85 338 0.0 0.0 0.00 0.00 0.00 30 1021.4
20260906153543 84 0 0.0 0.0 0.00 0.00 0.00 30 1021.4
20260906153043 84 0 0.0 0.0 0.00 0.00 0.00 30 1021.4
20260906152543 83 0 0.0 0.0 0.00 0.00 0.00 30 1021.4
20260906152042 82 0 0.0 0.0 0.00 0.00 0.00 30 1021.4
20260906151542 82 0 0.0 0.0 0.00 0.00 0.00 30 1020.4
20260906151042 81 0 0.0 0.0 0.00 0.00 0.00 30 1020.4
20260906150542 81 0 0.0 0.0 0.00 0.00 0.00 30 1020.4
20260906150043 82 0 0.0 0.0 0.00 0.00 0.00 30 1020.4
20260906145542 84 0 0.0 0.0 0.00 0.00 0.00 30 1020.4
20260906145043 83 0 0.0 0.0 0.00 0.00 0.00 30 1020.4
20260906144542 82 0 0.0 0.0 0.00 0.00 0.00 30 1020.4
20260906144043 81 0 0.0 0.0 0.00 0.00 0.00 30 1020.4
20260906143542 80 0 0.0 0.0 0.00 0.00 0.00 30 1020.4
20260906143042 80 0 0.0 0.0 0.00 0.00 0.00 30 1020.4
20260906142542 81 0 0.0 0.0 0.00 0.00 0.00 30 1020.4
20260906142043 81 0 0.0 0.0 0.00 0.00 0.00 30 1020.4
20260906141543 80 0 0.0 0.0 0.00 0.00 0.00 30 1020.4
20260906141043 80 0 0.0 0.0 0.00 0.00 0.00 30 1020.4
20260906140543 79 0 0.0 0.0 0.00 0.00 0.00 30 1020.4
20260906140043 78 0 0.0 0.0 0.00 0.00 0.00 31 1020.4
20260906135542 77 0 0.0 0.0 0.00 0.00 0.00 31 1020.4
20260906135042 75 0 0.0 0.0 0.00 0.00 0.00 31 1020.4
20260906134542 74 0 0.0 0.0 0.00 0.00 0.00 31 1020.4
20260906134043 73 0 0.0 0.0 0.00 0.00 0.00 31 1020.4
20260906133543 72 0 0.0 0.0 0.00 0.00 0.00 32 1020.4
20260906133042 70 0 0.0 0.0 0.00 0.00 0.00 32 1020.4
20260906132542 70 0 0.0 0.0 0.00 0.00 0.00 32 1020.4
20260906132042 69 0 0.0 0.0 0.00 0.00 0.00 33 1020.4
20260906131542 68 0 0.0 3.0 0.00 0.00 0.00 33 1020.4
20260906131043 67 0 0.0 3.0 0.00 0.00 0.00 33 1020.4
20260906130543 66 0 0.0 0.0 0.00 0.00 0.00 34 1020.4
20260906130043 66 23 0.0 0.0 0.00 0.00 0.00 34 1020.4
20260906125542 66 23 0.0 0.0 0.00 0.00 0.00 34 1020.4
20260906125042 66 23 0.0 0.0 0.00 0.00 0.00 34 1020.4
20260906124542 66 23 0.0 0.0 0.00 0.00 0.00 33 1020.4
20260906124043 67 23 0.0 0.0 0.00 0.00 0.00 33 1020.4
20260906123543 67 0 0.0 0.0 0.00 0.00 0.00 33 1020.4
20260906123042 67 0 0.0 3.0 0.00 0.00 0.00 33 1020.4
20260906122543 67 0 0.0 3.0 0.00 0.00 0.00 33 1020.4
20260906122043 66 0 0.0 3.0 0.00 0.00 0.00 33 1020.4
20260906121543 66 0 0.0 0.0 0.00 0.00 0.00 33 1020.4
20260906121043 66 0 0.0 0.0 0.00 0.00 0.00 34 1020.4
20260906120543 65 0 0.0 0.0 0.00 0.00 0.00 34 1020.4
20260906120043 65 0 0.0 0.0 0.00 0.00 0.00 34 1020.4
20260906115542 65 0 0.0 0.0 0.00 0.00 0.00 34 1020.4
20260906115042 65 0 0.0 0.0 0.00 0.00 0.00 34 1020.4
20260906114543 65 0 0.0 0.0 0.00 0.00 0.00 34 1020.4
20260906114042 65 0 0.0 0.0 0.00 0.00 0.00 34 1020.4
20260906113542 66 0 0.0 0.0 0.00 0.00 0.00 34 1020.4
20260906113042 66 0 0.0 0.0 0.00 0.00 0.00 34 1020.4
20260906112543 66 0 0.0 0.0 0.00 0.00 0.00 34 1020.4
20260906112043 65 0 0.0 0.0 0.00 0.00 0.00 34 1020.4
20260906111543 65 0 0.0 0.0 0.00 0.00 0.00 34 1019.4
20260906111043 65 0 0.0 0.0 0.00 0.00 0.00 34 1019.4
20260906110543 65 0 0.0 0.0 0.00 0.00 0.00 34 1019.4
20260906110043 65 0 0.0 0.0 0.00 0.00 0.00 34 1019.4
20260906105542 65 0 0.0 0.0 0.00 0.00 0.00 34 1019.4
20260906105042 65 0 0.0 0.0 0.00 0.00 0.00 34 1019.4
20260906104542 65 0 0.0 0.0 0.00 0.00 0.00 34 1020.4
20260906104043 65 0 0.0 0.0 0.00 0.00 0.00 36 1020.4
20260906103543 65 0 0.0 0.0 0.00 0.00 0.00 36 1020.4
20260906103043 65 0 0.0 0.0 0.00 0.00 0.00 36 1020.4
20260906102543 65 23 0.0 0.0 0.00 0.00 0.00 36 1020.4
20260906102043 65 113 0.0 0.0 0.00 0.00 0.00 35 1020.4
20260906101543 66 113 0.0 0.0 0.00 0.00 0.00 35 1020.4
20260906101042 66 113 0.0 0.0 0.00 0.00 0.00 35 1020.4
20260906100542 66 113 0.0 0.0 0.00 0.00 0.00 34 1020.4
20260906100042 66 113 0.0 0.0 0.00 0.00 0.00 34 1020.4
20260906095543 67 113 0.0 0.0 0.00 0.00 0.00 34 1020.4
20260906095043 67 113 0.0 0.0 0.00 0.00 0.00 34 1020.4
20260906094543 67 113 0.0 0.0 0.00 0.00 0.00 34 1020.4
20260906094043 68 113 0.0 0.0 0.00 0.00 0.00 34 1020.4
20260906093542 68 0 0.0 0.0 0.00 0.00 0.00 34 1020.4
20260906093043 68 0 0.0 0.0 0.00 0.00 0.00 34 1020.4
20260906092542 68 0 0.0 0.0 0.00 0.00 0.00 34 1020.4
20260906092042 68 0 0.0 0.0 0.00 0.00 0.00 34 1020.4
20260906091542 68 0 0.0 0.0 0.00 0.00 0.00 34 1020.4
20260906091043 68 0 0.0 0.0 0.00 0.00 0.00 34 1020.4
20260906090543 68 0 0.0 0.0 0.00 0.00 0.00 34 1020.4
20260906090042 68 0 0.0 0.0 0.00 0.00 0.00 34 1020.4
20260906085542 68 0 0.0 0.0 0.00 0.00 0.00 33 1020.4
20260906085042 68 0 0.0 3.0 0.00 0.00 0.00 33 1020.4
20260906084542 68 0 0.0 0.0 0.00 0.00 0.00 33 1020.4
20260906084043 68 0 0.0 0.0 0.00 0.00 0.00 33 1020.4
20260906083543 68 0 0.0 0.0 0.00 0.00 0.00 33 1020.4
20260906083043 68 0 0.0 3.0 0.00 0.00 0.00 34 1020.4
20260906082542 68 0 0.0 0.0 0.00 0.00 0.00 34 1020.4
20260906082042 67 0 0.0 0.0 0.00 0.00 0.00 35 1020.4
20260906081542 67 0 0.0 0.0 0.00 0.00 0.00 36 1020.4
20260906081043 67 0 0.0 0.0 0.00 0.00 0.00 37 1020.4
20260906080543 66 0 0.0 0.0 0.00 0.00 0.00 38 1020.4
20260906080043 66 0 0.0 0.0 0.00 0.00 0.00 38 1020.4
20260906075542 66 0 0.0 0.0 0.00 0.00 0.00 38 1020.4
20260906075042 66 0 0.0 0.0 0.00 0.00 0.00 38 1020.4
20260906074542 66 0 0.0 0.0 0.00 0.00 0.00 38 1020.4
20260906074042 66 0 0.0 0.0 0.00 0.00 0.00 38 1020.4
20260906073542 66 0 0.0 0.0 0.00 0.00 0.00 38 1020.4
20260906073042 66 0 0.0 0.0 0.00 0.00 0.00 39 1020.4
20260906072541 66 0 0.0 0.0 0.00 0.00 0.00 39 1020.4
20260906072041 66 0 0.0 0.0 0.00 0.00 0.00 39 1020.4
20260906071541 66 0 0.0 0.0 0.00 0.00 0.00 39 1020.4
20260906071042 66 0 0.0 0.0 0.00 0.00 0.00 38 1020.4
20260906070542 67 0 0.0 0.0 0.00 0.00 0.00 38 1020.4
20260906070042 67 0 0.0 0.0 0.00 0.00 0.00 38 1020.4
20260906065543 67 0 0.0 0.0 0.00 0.00 0.00 38 1020.4
20260906065043 67 0 0.0 3.0 0.00 0.00 0.00 37 1020.4
20260906064543 67 0 0.0 0.0 0.00 0.00 0.00 37 1020.4
20260906064042 68 0 0.0 0.0 0.00 0.00 0.00 36 1020.4
20260906063541 68 135 0.0 0.0 0.00 0.00 0.00 36 1020.4
20260906063041 68 135 0.0 3.0 0.00 0.00 0.00 35 1020.4
20260906062542 68 113 0.0 0.0 0.00 0.00 0.00 35 1020.4
20260906062042 68 113 0.0 0.0 0.00 0.00 0.00 35 1020.4
20260906061542 68 113 0.0 0.0 0.00 0.00 0.00 35 1020.4
20260906061043 69 45 0.0 3.0 0.00 0.00 0.00 35 1020.4
20260906060543 69 90 0.0 0.0 0.00 0.00 0.00 35 1020.4
20260906060043 69 90 0.0 0.0 0.00 0.00 0.00 35 1020.4
20260906055542 69 113 0.0 5.0 0.00 0.00 0.00 35 1020.4
20260906055042 69 113 1.0 3.0 0.00 0.00 0.00 35 1020.4
20260906054542 70 113 0.0 0.0 0.00 0.00 0.00 35 1020.4
20260906054042 70 113 0.0 0.0 0.00 0.00 0.00 34 1020.4
20260906053541 70 113 0.0 3.0 0.00 0.00 0.00 34 1020.4
20260906053041 70 135 0.0 5.0 0.00 0.00 0.00 34 1020.4
20260906052542 70 135 0.0 0.0 0.00 0.00 0.00 34 1020.4
20260906052042 70 135 0.0 0.0 0.00 0.00 0.00 34 1020.4
20260906051542 70 135 0.0 0.0 0.00 0.00 0.00 34 1020.4
20260906051043 71 135 0.0 0.0 0.00 0.00 0.00 34 1020.4
20260906050543 71 135 0.0 0.0 0.00 0.00 0.00 34 1020.4
20260906050043 71 135 0.0 0.0 0.00 0.00 0.00 34 1020.4
20260906045542 71 135 0.0 0.0 0.00 0.00 0.00 34 1020.4
20260906045042 71 135 0.0 0.0 0.00 0.00 0.00 34 1020.4
20260906044542 71 135 0.0 0.0 0.00 0.00 0.00 34 1020.4
20260906044043 71 135 0.0 0.0 0.00 0.00 0.00 34 1020.4
20260906043543 71 135 0.0 0.0 0.00 0.00 0.00 34 1020.4
20260906043042 71 135 0.0 0.0 0.00 0.00 0.00 34 1020.4
20260906042542 71 135 0.0 0.0 0.00 0.00 0.00 34 1020.4
20260906042042 71 135 0.0 0.0 0.00 0.00 0.00 34 1020.4
20260906041542 71 135 0.0 0.0 0.00 0.00 0.00 34 1020.4
20260906041043 72 135 0.0 0.0 0.00 0.00 0.00 33 1020.4
20260906040543 72 135 0.0 3.0 0.00 0.00 0.00 33 1020.4
20260906040043 72 135 0.0 0.0 0.00 0.00 0.00 33 1020.4
20260906035542 72 135 0.0 0.0 0.00 0.00 0.00 33 1020.4
20260906035043 72 135 0.0 0.0 0.00 0.00 0.00 33 1020.4
20260906034543 72 135 0.0 0.0 0.00 0.00 0.00 33 1020.4
20260906034042 72 135 0.0 0.0 0.00 0.00 0.00 33 1020.4
20260906033542 72 135 0.0 0.0 0.00 0.00 0.00 33 1020.4
20260906033044 72 135 0.0 0.0 0.00 0.00 0.00 33 1020.4
20260906032542 72 113 1.0 5.0 0.00 0.00 0.00 33 1020.4
20260906032042 72 135 0.0 5.0 0.00 0.00 0.00 34 1020.4
20260906031542 73 113 0.0 5.0 0.00 0.00 0.00 34 1020.4
20260906031043 73 113 0.0 6.0 0.00 0.00 0.00 33 1020.4
20260906030543 73 113 0.0 5.0 0.00 0.00 0.00 33 1020.4
20260906030043 73 135 0.0 0.0 0.00 0.00 0.00 33 1020.4
20260906025542 73 113 0.0 3.0 0.00 0.00 0.00 33 1020.4
20260906025042 73 113 0.0 0.0 0.00 0.00 0.00 33 1020.4
20260906024542 73 113 1.0 7.0 0.00 0.00 0.00 33 1019.4
20260906024042 74 135 0.0 3.0 0.00 0.00 0.00 33 1019.4
20260906023542 74 113 1.0 6.0 0.00 0.00 0.00 33 1019.4
20260906023042 74 113 1.0 6.0 0.00 0.00 0.00 33 1019.4
20260906022543 75 113 0.0 5.0 0.00 0.00 0.00 32 1019.4
20260906022043 75 158 3.0 7.0 0.00 0.00 0.00 32 1019.4
20260906021543 75 113 5.0 7.0 0.00 0.00 0.00 32 1019.4
20260906021042 76 90 3.0 7.0 0.00 0.00 0.00 31 1019.4
20260906020542 76 135 5.0 7.0 0.00 0.00 0.00 31 1019.4
20260906020042 76 113 0.0 5.0 0.00 0.00 0.00 31 1019.4
20260906015543 77 0 0.0 0.0 0.00 0.00 0.00 31 1019.4
20260906015043 77 0 0.0 0.0 0.00 0.00 0.00 31 1019.4
20260906014543 78 0 0.0 0.0 0.00 0.00 0.00 31 1019.4
20260906014041 78 0 0.0 0.0 0.00 0.00 0.00 31 1019.4
20260906013543 78 0 0.0 0.0 0.00 0.00 0.00 31 1019.4
20260906013043 78 0 0.0 0.0 0.00 0.00 0.00 31 1019.4
20260906012542 79 0 0.0 0.0 0.00 0.00 0.00 30 1019.4
20260906012042 79 0 0.0 0.0 0.00 0.00 0.00 30 1019.4
20260906011542 79 0 0.0 0.0 0.00 0.00 0.00 30 1019.4
20260906011042 80 0 0.0 0.0 0.00 0.00 0.00 30 1019.4
20260906010542 80 0 0.0 3.0 0.00 0.00 0.00 30 1019.4
20260906010042 80 0 0.0 3.0 0.00 0.00 0.00 30 1019.4
20260906005543 80 0 0.0 3.0 0.00 0.00 0.00 30 1019.4
20260906005043 81 23 0.0 0.0 0.00 0.00 0.00 30 1019.4
20260906004543 81 0 0.0 0.0 0.00 0.00 0.00 30 1019.4
20260906004042 82 0 0.0 5.0 0.00 0.00 0.00 30 1019.4
20260906003542 83 338 0.0 3.0 0.00 0.00 0.00 30 1019.4
20260906003041 83 0 0.0 0.0 0.00 0.00 0.00 30 1019.4
20260906002542 83 0 0.0 0.0 0.00 0.00 0.00 30 1019.4
20260906002042 83 0 0.0 0.0 0.00 0.00 0.00 30 1019.4
20260906001542 83 23 0.0 0.0 0.00 0.00 0.00 30 1019.4
20260906001043 83 0 0.0 0.0 0.00 0.00 0.00 30 1019.4
20260906000543 83 23 0.0 0.0 0.00 0.00 0.00 30 1019.4
20260906000043 83 90 0.0 0.0 0.00 0.00 0.00 30 1019.4
20260905235542 83 90 0.0 0.0 0.00 0.00 0.00 30 1019.4
20260905235042 83 90 0.0 0.0 0.00 0.00 0.00 30 1019.4
20260905234542 83 135 0.0 0.0 0.00 0.00 0.00 30 1019.4
20260905234042 83 135 0.0 0.0 0.00 0.00 0.00 30 1019.4
20260905233542 83 113 0.0 0.0 0.00 0.00 0.00 30 1019.4
20260905233042 83 90 0.0 0.0 0.00 0.00 0.00 30 1019.4
20260905232543 83 23 0.0 0.0 0.00 0.00 0.00 30 1019.4
20260905232042 83 90 0.0 0.0 0.00 0.00 0.00 30 1019.4
20260905231542 84 0 0.0 0.0 0.00 0.00 0.00 30 1019.4
20260905231043 84 0 0.0 0.0 0.00 0.00 0.00 30 1019.4
20260905230542 85 0 0.0 0.0 0.00 0.00 0.00 30 1019.4
20260905230042 85 0 0.0 0.0 0.00 0.00 0.00 30 1019.4
20260905225543 84 0 0.0 0.0 0.00 0.00 0.00 30 1019.4
20260905225043 85 23 0.0 0.0 0.00 0.00 0.00 30 1019.4
20260905224543 84 180 0.0 0.0 0.00 0.00 0.00 30 1019.4
20260905224042 84 0 0.0 0.0 0.00 0.00 0.00 30 1019.4
20260905223542 83 0 0.0 3.0 0.00 0.00 0.00 30 1019.4
20260905223042 83 23 0.0 0.0 0.00 0.00 0.00 30 1019.4
20260905222542 83 68 0.0 0.0 0.00 0.00 0.00 30 1019.4
20260905222042 83 0 0.0 3.0 0.00 0.00 0.00 30 1019.4
20260905221542 83 0 0.0 3.0 0.00 0.00 0.00 30 1019.4
20260905221043 83 0 0.0 6.0 0.00 0.00 0.00 30 1019.4
20260905220542 83 0 0.0 3.0 0.00 0.00 0.00 30 1019.4
20260905220042 83 113 0.0 0.0 0.00 0.00 0.00 30 1019.4
20260905215543 83 0 0.0 0.0 0.00 0.00 0.00 30 1019.4
20260905215043 84 0 0.0 0.0 0.00 0.00 0.00 30 1019.4
20260905214542 84 270 0.0 0.0 0.00 0.00 0.00 30 1019.4